Volver al catálogo

METEOR 2-8 DEB

ActivoPO
NORAD 36334·DEBRIS·🇷🇺 Russia

Lanzado Mar 25, 1982 desde Plesetsk Cosmodrome

Loading…

Próximos Pases (próximas 24 horas)

TLE

ActualizadoSource: Space-Track

Época: Sep 13, 2026, 07:52 UTC

1 36334U 82025U   26256.32799761  .00003085  00000-0  12287-2 0  9999
2 36334  82.5124 108.2643 0014402 182.4084 177.7034 14.28309836654485

Sigue METEOR 2-8 DEB en tiempo real con AllMySat

Download on the App Store